Location: Shepherdstown, WV
(39.4326°N, 77.8042°W)
Time: 04:32:08
(UTC-04:00)

Vanguard 1 - Pass Details

Date: 05 October 2021
Orbit: 653 x 3829 km, 34.2° (Epoch: 18 October)

Event Time Altitude Azimuth Distance (km) Brightness Sun altitude
Rises 00:31:29 0° 283° (WNW) 6,917 14.6 -54.8°
Reaches altitude 10° 00:36:17 10° 276° (W) 6,242 14.2 -55.0°
Enters shadow 00:45:15 27° 254° (WSW) 5,340 13.5 -55.2°
